Year,Month,Day,Hour,Minute,Value (Times are PST for temperature in C)
2006,07,24,00,00,20.90
2006,07,24,00,01,20.90
2006,07,24,00,02,20.90
2006,07,24,00,03,20.90
2006,07,24,00,04,20.80
2006,07,24,00,05,20.80
2006,07,24,00,06,20.80
2006,07,24,00,07,20.90
2006,07,24,00,08,20.90
2006,07,24,00,09,20.90
2006,07,24,00,10,20.90
2006,07,24,00,11,20.90
2006,07,24,00,12,20.90
2006,07,24,00,13,21.00
2006,07,24,00,14,21.00
2006,07,24,00,15,21.00
2006,07,24,00,16,21.00
2006,07,24,00,17,20.90
2006,07,24,00,18,20.90
2006,07,24,00,19,20.90
2006,07,24,00,20,20.80
2006,07,24,00,21,20.80
2006,07,24,00,22,20.70
2006,07,24,00,23,20.70
2006,07,24,00,24,20.60
2006,07,24,00,25,20.50
2006,07,24,00,26,20.40
2006,07,24,00,27,20.40
2006,07,24,00,28,20.30
2006,07,24,00,29,20.30
2006,07,24,00,30,20.20
2006,07,24,00,31,20.10
2006,07,24,00,32,20.00
2006,07,24,00,33,19.90
2006,07,24,00,34,19.80
2006,07,24,00,35,19.80
2006,07,24,00,36,19.70
2006,07,24,00,37,19.70
2006,07,24,00,38,19.70
2006,07,24,00,39,19.70
2006,07,24,00,40,19.80
2006,07,24,00,41,19.80
2006,07,24,00,42,19.80
2006,07,24,00,43,19.90
2006,07,24,00,44,19.90
2006,07,24,00,45,19.90
2006,07,24,00,46,19.90
2006,07,24,00,47,20.00
2006,07,24,00,48,20.00
2006,07,24,00,49,20.00
2006,07,24,00,50,20.10
2006,07,24,00,51,20.10
2006,07,24,00,52,20.10
2006,07,24,00,53,20.10
2006,07,24,00,54,20.20
2006,07,24,00,55,20.20
2006,07,24,00,56,20.20
2006,07,24,00,57,20.20
2006,07,24,00,58,20.20
2006,07,24,00,59,20.20
2006,07,24,01,00,20.30
2006,07,24,01,01,20.30
2006,07,24,01,02,20.40
2006,07,24,01,03,20.40
2006,07,24,01,04,20.50
2006,07,24,01,05,20.60
2006,07,24,01,06,20.60
2006,07,24,01,07,20.70
2006,07,24,01,08,20.70
2006,07,24,01,09,20.70
2006,07,24,01,10,20.80
2006,07,24,01,11,20.80
2006,07,24,01,12,20.80
2006,07,24,01,13,20.80
2006,07,24,01,14,20.80
2006,07,24,01,15,20.80
2006,07,24,01,16,20.80
2006,07,24,01,17,20.80
2006,07,24,01,18,20.80
2006,07,24,01,19,20.80
2006,07,24,01,20,20.80
2006,07,24,01,21,20.80
2006,07,24,01,22,20.80
2006,07,24,01,23,20.80
2006,07,24,01,24,20.80
2006,07,24,01,25,20.70
2006,07,24,01,26,20.70
2006,07,24,01,27,20.70
2006,07,24,01,28,20.70
2006,07,24,01,29,20.70
2006,07,24,01,30,20.70
2006,07,24,01,31,20.70
2006,07,24,01,32,20.60
2006,07,24,01,33,20.60
2006,07,24,01,34,20.50
2006,07,24,01,35,20.40
2006,07,24,01,36,20.30
2006,07,24,01,37,20.30
2006,07,24,01,38,20.30
2006,07,24,01,39,20.30
2006,07,24,01,40,20.30
2006,07,24,01,41,20.30
2006,07,24,01,42,20.30
2006,07,24,01,43,20.30
2006,07,24,01,44,20.30
2006,07,24,01,45,20.30
2006,07,24,01,46,20.30
2006,07,24,01,47,20.40
2006,07,24,01,48,20.40
2006,07,24,01,49,20.40
2006,07,24,01,50,20.40
2006,07,24,01,51,20.40
2006,07,24,01,52,20.40
2006,07,24,01,53,20.40
2006,07,24,01,54,20.40
2006,07,24,01,55,20.40
2006,07,24,01,56,20.40
2006,07,24,01,57,20.30
2006,07,24,01,58,20.30
2006,07,24,01,59,20.30
2006,07,24,02,00,20.20
2006,07,24,02,01,20.20
2006,07,24,02,02,20.10
2006,07,24,02,03,20.10
2006,07,24,02,04,20.00
2006,07,24,02,05,19.90
2006,07,24,02,06,19.80
2006,07,24,02,07,19.70
2006,07,24,02,08,19.70
2006,07,24,02,09,19.70
2006,07,24,02,10,19.60
2006,07,24,02,11,19.60
2006,07,24,02,12,19.60
2006,07,24,02,13,19.50
2006,07,24,02,14,19.40
2006,07,24,02,15,19.30
2006,07,24,02,16,19.30
2006,07,24,02,17,19.30
2006,07,24,02,18,19.30
2006,07,24,02,19,19.20
2006,07,24,02,20,19.20
2006,07,24,02,21,19.20
2006,07,24,02,22,19.20
2006,07,24,02,23,19.20
2006,07,24,02,24,19.20
2006,07,24,02,25,19.10
2006,07,24,02,26,19.00
2006,07,24,02,27,18.90
2006,07,24,02,28,18.90
2006,07,24,02,29,18.90
2006,07,24,02,30,18.80
2006,07,24,02,31,18.80
2006,07,24,02,32,18.80
2006,07,24,02,33,18.70
2006,07,24,02,34,18.60
2006,07,24,02,35,18.60
2006,07,24,02,36,18.60
2006,07,24,02,37,18.50
2006,07,24,02,38,18.50
2006,07,24,02,39,18.40
2006,07,24,02,40,18.40
2006,07,24,02,41,18.30
2006,07,24,02,42,18.30
2006,07,24,02,43,18.20
2006,07,24,02,44,18.20
2006,07,24,02,45,18.20
2006,07,24,02,46,18.20
2006,07,24,02,47,18.20
2006,07,24,02,48,18.20
2006,07,24,02,49,18.20
2006,07,24,02,50,18.20
2006,07,24,02,51,18.20
2006,07,24,02,52,18.20
2006,07,24,02,53,18.20
2006,07,24,02,54,18.10
2006,07,24,02,55,18.10
2006,07,24,02,56,18.10
2006,07,24,02,57,18.10
2006,07,24,02,58,18.20
2006,07,24,02,59,18.20
2006,07,24,03,00,18.20
2006,07,24,03,01,18.30
2006,07,24,03,02,18.30
2006,07,24,03,03,18.30
2006,07,24,03,04,18.20
2006,07,24,03,05,18.20
2006,07,24,03,06,18.20
2006,07,24,03,07,18.20
2006,07,24,03,08,18.10
2006,07,24,03,09,18.10
2006,07,24,03,10,18.10
2006,07,24,03,11,18.10
2006,07,24,03,12,18.10
2006,07,24,03,13,18.10
2006,07,24,03,14,18.10
2006,07,24,03,15,18.10
2006,07,24,03,16,18.20
2006,07,24,03,17,18.20
2006,07,24,03,18,18.30
2006,07,24,03,19,18.30
2006,07,24,03,20,18.30
2006,07,24,03,21,18.30
2006,07,24,03,22,18.30
2006,07,24,03,23,18.30
2006,07,24,03,24,18.30
2006,07,24,03,25,18.30
2006,07,24,03,26,18.30
2006,07,24,03,27,18.40
2006,07,24,03,28,18.40
2006,07,24,03,29,18.40
2006,07,24,03,30,18.40
2006,07,24,03,31,18.40
2006,07,24,03,32,18.40
2006,07,24,03,33,18.40
2006,07,24,03,34,18.50
2006,07,24,03,35,18.50
2006,07,24,03,36,18.60
2006,07,24,03,37,18.60
2006,07,24,03,38,18.60
2006,07,24,03,39,18.60
2006,07,24,03,40,18.60
2006,07,24,03,41,18.50
2006,07,24,03,42,18.40
2006,07,24,03,43,18.40
2006,07,24,03,44,18.30
2006,07,24,03,45,18.30
2006,07,24,03,46,18.20
2006,07,24,03,47,18.20
2006,07,24,03,48,18.10
2006,07,24,03,49,18.00
2006,07,24,03,50,18.00
2006,07,24,03,51,17.90
2006,07,24,03,52,17.90
2006,07,24,03,53,17.90
2006,07,24,03,54,17.90
2006,07,24,03,55,18.00
2006,07,24,03,56,18.20
2006,07,24,03,57,18.30
2006,07,24,03,58,18.40
2006,07,24,03,59,18.50
2006,07,24,04,00,18.70
2006,07,24,04,01,18.80
2006,07,24,04,02,18.80
2006,07,24,04,03,18.80
2006,07,24,04,04,18.90
2006,07,24,04,05,18.90
2006,07,24,04,06,19.00
2006,07,24,04,07,19.10
2006,07,24,04,08,19.10
2006,07,24,04,09,19.10
2006,07,24,04,10,19.20
2006,07,24,04,11,19.20
2006,07,24,04,12,19.20
2006,07,24,04,13,19.20
2006,07,24,04,14,19.10
2006,07,24,04,15,19.10
2006,07,24,04,16,19.10
2006,07,24,04,17,19.10
2006,07,24,04,18,19.10
2006,07,24,04,19,19.10
2006,07,24,04,20,19.10
2006,07,24,04,21,19.10
2006,07,24,04,22,19.10
2006,07,24,04,23,19.10
2006,07,24,04,24,19.10
2006,07,24,04,25,19.00
2006,07,24,04,26,19.00
2006,07,24,04,27,19.00
2006,07,24,04,28,19.00
2006,07,24,04,29,18.90
2006,07,24,04,30,18.90
2006,07,24,04,31,18.90
2006,07,24,04,32,18.90
2006,07,24,04,33,18.90
2006,07,24,04,34,18.90
2006,07,24,04,35,18.80
2006,07,24,04,36,18.80
2006,07,24,04,37,18.70
2006,07,24,04,38,18.70
2006,07,24,04,39,18.70
2006,07,24,04,40,18.70
2006,07,24,04,41,18.60
2006,07,24,04,42,18.60
2006,07,24,04,43,18.60
2006,07,24,04,44,18.50
2006,07,24,04,45,18.50
2006,07,24,04,46,18.40
2006,07,24,04,47,18.40
2006,07,24,04,48,18.30
2006,07,24,04,49,18.30
2006,07,24,04,50,18.20
2006,07,24,04,51,18.10
2006,07,24,04,52,18.10
2006,07,24,04,53,18.00
2006,07,24,04,54,17.90
2006,07,24,04,55,17.90
2006,07,24,04,56,17.80
2006,07,24,04,57,17.70
2006,07,24,04,58,17.70
2006,07,24,04,59,17.60
2006,07,24,05,00,17.60
2006,07,24,05,01,17.50
2006,07,24,05,02,17.40
2006,07,24,05,03,17.40
2006,07,24,05,04,17.30
2006,07,24,05,05,17.30
2006,07,24,05,06,17.30
2006,07,24,05,07,17.20
2006,07,24,05,08,17.20
2006,07,24,05,09,17.20
2006,07,24,05,10,17.20
2006,07,24,05,11,17.30
2006,07,24,05,12,17.30
2006,07,24,05,13,17.30
2006,07,24,05,14,17.30
2006,07,24,05,15,17.30
2006,07,24,05,16,17.40
2006,07,24,05,17,17.40
2006,07,24,05,18,17.40
2006,07,24,05,19,17.40
2006,07,24,05,20,17.50
2006,07,24,05,21,17.50
2006,07,24,05,22,17.50
2006,07,24,05,23,17.60
2006,07,24,05,24,17.50
2006,07,24,05,25,17.50
2006,07,24,05,26,17.60
2006,07,24,05,27,17.60
2006,07,24,05,28,17.60
2006,07,24,05,29,17.70
2006,07,24,05,30,17.70
2006,07,24,05,31,17.70
2006,07,24,05,32,17.70
2006,07,24,05,33,17.70
2006,07,24,05,34,17.70
2006,07,24,05,35,17.60
2006,07,24,05,36,17.60
2006,07,24,05,37,17.60
2006,07,24,05,38,17.60
2006,07,24,05,39,17.60
2006,07,24,05,40,17.50
2006,07,24,05,41,17.50
2006,07,24,05,42,17.50
2006,07,24,05,43,17.40
2006,07,24,05,44,17.40
2006,07,24,05,45,17.40
2006,07,24,05,46,17.40
2006,07,24,05,47,17.40
2006,07,24,05,48,17.40
2006,07,24,05,49,17.40
2006,07,24,05,50,17.40
2006,07,24,05,51,17.30
2006,07,24,05,52,17.30
2006,07,24,05,53,17.30
2006,07,24,05,54,17.20
2006,07,24,05,55,17.10
2006,07,24,05,56,17.10
2006,07,24,05,57,17.00
2006,07,24,05,58,17.00
2006,07,24,05,59,17.00
2006,07,24,06,00,16.90
2006,07,24,06,01,16.90
2006,07,24,06,02,16.80
2006,07,24,06,03,16.80
2006,07,24,06,04,16.80
2006,07,24,06,05,16.80
2006,07,24,06,06,16.80
2006,07,24,06,07,16.80
2006,07,24,06,08,16.80
2006,07,24,06,09,16.80
2006,07,24,06,10,16.80
2006,07,24,06,11,16.80
2006,07,24,06,12,16.80
2006,07,24,06,13,16.80
2006,07,24,06,14,16.80
2006,07,24,06,15,16.80
2006,07,24,06,16,16.80
2006,07,24,06,17,16.90
2006,07,24,06,18,16.90
2006,07,24,06,19,16.90
2006,07,24,06,20,17.00
2006,07,24,06,21,17.10
2006,07,24,06,22,17.10
2006,07,24,06,23,17.10
2006,07,24,06,24,17.10
2006,07,24,06,25,17.10
2006,07,24,06,26,17.10
2006,07,24,06,27,17.10
2006,07,24,06,28,17.10
2006,07,24,06,29,17.20
2006,07,24,06,30,17.20
2006,07,24,06,31,17.20
2006,07,24,06,32,17.20
2006,07,24,06,33,17.20
2006,07,24,06,34,17.20
2006,07,24,06,35,17.20
2006,07,24,06,36,17.20
2006,07,24,06,37,17.20
2006,07,24,06,38,17.20
2006,07,24,06,39,17.20
2006,07,24,06,40,17.20
2006,07,24,06,41,17.20
2006,07,24,06,42,17.30
2006,07,24,06,43,17.30
2006,07,24,06,44,17.30
2006,07,24,06,45,17.30
2006,07,24,06,46,17.40
2006,07,24,06,47,17.40
2006,07,24,06,48,17.40
2006,07,24,06,49,17.40
2006,07,24,06,50,17.50
2006,07,24,06,51,17.50
2006,07,24,06,52,17.50
2006,07,24,06,53,17.60
2006,07,24,06,54,17.60
2006,07,24,06,55,17.60
2006,07,24,06,56,17.60
2006,07,24,06,57,17.70
2006,07,24,06,58,17.70
2006,07,24,06,59,17.80
2006,07,24,07,00,17.80
2006,07,24,07,01,17.90
2006,07,24,07,02,18.00
2006,07,24,07,03,18.10
2006,07,24,07,04,18.10
2006,07,24,07,05,18.10
2006,07,24,07,06,18.20
2006,07,24,07,07,18.30
2006,07,24,07,08,18.30
2006,07,24,07,09,18.40
2006,07,24,07,10,18.50
2006,07,24,07,11,18.60
2006,07,24,07,12,18.60
2006,07,24,07,13,18.70
2006,07,24,07,14,18.70
2006,07,24,07,15,18.70
2006,07,24,07,16,18.80
2006,07,24,07,17,18.80
2006,07,24,07,18,18.90
2006,07,24,07,19,18.90
2006,07,24,07,20,19.00
2006,07,24,07,21,19.10
2006,07,24,07,22,19.10
2006,07,24,07,23,19.20
2006,07,24,07,24,19.20
2006,07,24,07,25,19.20
2006,07,24,07,26,19.30
2006,07,24,07,27,19.30
2006,07,24,07,28,19.30
2006,07,24,07,29,19.30
2006,07,24,07,30,19.30
2006,07,24,07,31,19.30
2006,07,24,07,32,19.30
2006,07,24,07,33,19.40
2006,07,24,07,34,19.40
2006,07,24,07,35,19.50
2006,07,24,07,36,19.50
2006,07,24,07,37,19.60
2006,07,24,07,38,19.60
2006,07,24,07,39,19.70
2006,07,24,07,40,19.70
2006,07,24,07,41,19.70
2006,07,24,07,42,19.80
2006,07,24,07,43,19.80
2006,07,24,07,44,19.90
2006,07,24,07,45,19.90
2006,07,24,07,46,20.00
2006,07,24,07,47,20.00
2006,07,24,07,48,20.10
2006,07,24,07,49,20.20
2006,07,24,07,50,20.20
2006,07,24,07,51,20.20
2006,07,24,07,52,20.30
2006,07,24,07,53,20.30
2006,07,24,07,54,20.40
2006,07,24,07,55,20.40
2006,07,24,07,56,20.50
2006,07,24,07,57,20.50
2006,07,24,07,58,20.60
2006,07,24,07,59,20.60
2006,07,24,08,00,20.60
2006,07,24,08,01,20.60
2006,07,24,08,02,20.60
2006,07,24,08,03,20.60
2006,07,24,08,04,20.70
2006,07,24,08,05,20.70
2006,07,24,08,06,20.70
2006,07,24,08,07,20.80
2006,07,24,08,08,20.80
2006,07,24,08,09,20.80
2006,07,24,08,10,20.80
2006,07,24,08,11,20.80
2006,07,24,08,12,20.80
2006,07,24,08,13,20.80
2006,07,24,08,14,20.80
2006,07,24,08,15,20.90
2006,07,24,08,16,20.90
2006,07,24,08,17,20.90
2006,07,24,08,18,20.90
2006,07,24,08,19,21.00
2006,07,24,08,20,21.00
2006,07,24,08,21,21.00
2006,07,24,08,22,21.00
2006,07,24,08,23,21.10
2006,07,24,08,24,21.10
2006,07,24,08,25,21.10
2006,07,24,08,26,21.10
2006,07,24,08,27,21.10
2006,07,24,08,28,21.00
2006,07,24,08,29,21.00
2006,07,24,08,30,21.00
2006,07,24,08,31,21.00
2006,07,24,08,32,21.00
2006,07,24,08,33,21.00
2006,07,24,08,34,20.90
2006,07,24,08,35,20.90
2006,07,24,08,36,20.90
2006,07,24,08,37,20.90
2006,07,24,08,38,21.00
2006,07,24,08,39,21.00
2006,07,24,08,40,21.10
2006,07,24,08,41,21.10
2006,07,24,08,42,21.10
2006,07,24,08,43,21.20
2006,07,24,08,44,21.30
2006,07,24,08,45,21.30
2006,07,24,08,46,21.30
2006,07,24,08,47,21.30
2006,07,24,08,48,21.30
2006,07,24,08,49,21.30
2006,07,24,08,50,21.30
2006,07,24,08,51,21.30
2006,07,24,08,52,21.30
2006,07,24,08,53,21.30
2006,07,24,08,54,21.30
2006,07,24,08,55,21.30
2006,07,24,08,56,21.30
2006,07,24,08,57,21.30
2006,07,24,08,58,21.30
2006,07,24,08,59,21.30
2006,07,24,09,00,21.30
2006,07,24,09,01,21.30
2006,07,24,09,02,21.40
2006,07,24,09,03,21.40
2006,07,24,09,04,21.40
2006,07,24,09,05,21.40
2006,07,24,09,06,21.40
2006,07,24,09,07,21.40
2006,07,24,09,08,21.40
2006,07,24,09,09,21.50
2006,07,24,09,10,21.50
2006,07,24,09,11,21.60
2006,07,24,09,12,21.60
2006,07,24,09,13,21.50
2006,07,24,09,14,21.40
2006,07,24,09,15,21.40
2006,07,24,09,16,21.50
2006,07,24,09,17,21.50
2006,07,24,09,18,21.50
2006,07,24,09,19,21.60
2006,07,24,09,20,21.60
2006,07,24,09,21,21.60
2006,07,24,09,22,21.60
2006,07,24,09,23,21.60
2006,07,24,09,24,21.70
2006,07,24,09,25,21.70
2006,07,24,09,26,21.60
2006,07,24,09,27,21.60
2006,07,24,09,28,21.70
2006,07,24,09,29,21.70
2006,07,24,09,30,21.80
2006,07,24,09,31,21.80
2006,07,24,09,32,21.80
2006,07,24,09,33,21.80
2006,07,24,09,34,21.90
2006,07,24,09,35,21.90
2006,07,24,09,36,21.90
2006,07,24,09,37,22.00
2006,07,24,09,38,22.00
2006,07,24,09,39,22.00
2006,07,24,09,40,22.10
2006,07,24,09,41,22.10
2006,07,24,09,42,22.10
2006,07,24,09,43,22.20
2006,07,24,09,44,22.30
2006,07,24,09,45,22.40
2006,07,24,09,46,22.50
2006,07,24,09,47,22.50
2006,07,24,09,48,22.60
2006,07,24,09,49,22.60
2006,07,24,09,50,22.60
2006,07,24,09,51,22.70
2006,07,24,09,52,22.70
2006,07,24,09,53,22.80
2006,07,24,09,54,22.70
2006,07,24,09,55,22.70
2006,07,24,09,56,22.70
2006,07,24,09,57,22.80
2006,07,24,09,58,22.80
2006,07,24,09,59,22.80
2006,07,24,10,00,22.80
2006,07,24,10,01,22.80
2006,07,24,10,02,22.90
2006,07,24,10,03,22.90
2006,07,24,10,04,23.00
2006,07,24,10,05,23.00
2006,07,24,10,06,23.10
2006,07,24,10,07,23.10
2006,07,24,10,08,23.00
2006,07,24,10,09,22.90
2006,07,24,10,10,22.90
2006,07,24,10,11,22.90
2006,07,24,10,12,22.80
2006,07,24,10,13,22.70
2006,07,24,10,14,22.60
2006,07,24,10,15,22.60
2006,07,24,10,16,22.60
2006,07,24,10,17,22.50
2006,07,24,10,18,22.50
2006,07,24,10,19,22.40
2006,07,24,10,20,22.30
2006,07,24,10,21,22.30
2006,07,24,10,22,22.30
2006,07,24,10,23,22.30
2006,07,24,10,24,22.30
2006,07,24,10,25,22.40
2006,07,24,10,26,22.50
2006,07,24,10,27,22.50
2006,07,24,10,28,22.60
2006,07,24,10,29,22.60
2006,07,24,10,30,22.60
2006,07,24,10,31,22.60
2006,07,24,10,32,22.60
2006,07,24,10,33,22.70
2006,07,24,10,34,22.70
2006,07,24,10,35,22.80
2006,07,24,10,36,22.80
2006,07,24,10,37,22.70
2006,07,24,10,38,22.70
2006,07,24,10,39,22.60
2006,07,24,10,40,22.60
2006,07,24,10,41,22.60
2006,07,24,10,42,22.70
2006,07,24,10,43,22.70
2006,07,24,10,44,22.70
2006,07,24,10,45,22.80
2006,07,24,10,46,22.80
2006,07,24,10,47,22.80
2006,07,24,10,48,22.80
2006,07,24,10,49,22.70
2006,07,24,10,50,22.60
2006,07,24,10,51,22.50
2006,07,24,10,52,22.40
2006,07,24,10,53,22.40
2006,07,24,10,54,22.40
2006,07,24,10,55,22.40
2006,07,24,10,56,22.40
2006,07,24,10,57,22.40
2006,07,24,10,58,22.40
2006,07,24,10,59,22.40
2006,07,24,11,00,22.40
2006,07,24,11,01,22.50
2006,07,24,11,02,22.50
2006,07,24,11,03,22.50
2006,07,24,11,04,22.50
2006,07,24,11,05,22.60
2006,07,24,11,06,22.60
2006,07,24,11,07,22.60
2006,07,24,11,08,22.50
2006,07,24,11,09,22.40
2006,07,24,11,10,22.40
2006,07,24,11,11,22.40
2006,07,24,11,12,22.30
2006,07,24,11,13,22.20
2006,07,24,11,14,22.10
2006,07,24,11,15,22.10
2006,07,24,11,16,22.10
2006,07,24,11,17,22.10
2006,07,24,11,18,22.00
2006,07,24,11,19,21.90
2006,07,24,11,20,22.00
2006,07,24,11,21,22.10
2006,07,24,11,22,22.10
2006,07,24,11,23,22.20
2006,07,24,11,24,22.30
2006,07,24,11,25,22.40
2006,07,24,11,26,22.40
2006,07,24,11,27,22.40
2006,07,24,11,28,22.50
2006,07,24,11,29,22.60
2006,07,24,11,30,22.70
2006,07,24,11,31,22.80
2006,07,24,11,32,22.90
2006,07,24,11,33,22.90
2006,07,24,11,34,22.90
2006,07,24,11,35,22.90
2006,07,24,11,36,23.00
2006,07,24,11,37,23.10
2006,07,24,11,38,23.10
2006,07,24,11,39,23.20
2006,07,24,11,40,23.20
2006,07,24,11,41,23.30
2006,07,24,11,42,23.30
2006,07,24,11,43,23.20
2006,07,24,11,44,23.20
2006,07,24,11,45,23.20
2006,07,24,11,46,23.10
2006,07,24,11,47,23.10
2006,07,24,11,48,23.10
2006,07,24,11,49,23.10
2006,07,24,11,50,23.10
2006,07,24,11,51,23.10
2006,07,24,11,52,23.10
2006,07,24,11,53,23.10
2006,07,24,11,54,23.10
2006,07,24,11,55,23.20
2006,07,24,11,56,23.20
2006,07,24,11,57,23.20
2006,07,24,11,58,23.20
2006,07,24,11,59,23.20
2006,07,24,12,00,23.20
2006,07,24,12,01,23.30
2006,07,24,12,02,23.30
2006,07,24,12,03,23.40
2006,07,24,12,04,23.50
2006,07,24,12,05,23.60
2006,07,24,12,06,23.80
2006,07,24,12,07,23.90
2006,07,24,12,08,24.10
2006,07,24,12,09,24.20
2006,07,24,12,10,24.30
2006,07,24,12,11,24.30
2006,07,24,12,12,24.30
2006,07,24,12,13,24.30
2006,07,24,12,14,24.30
2006,07,24,12,15,24.40
2006,07,24,12,16,24.50
2006,07,24,12,17,24.60
2006,07,24,12,18,24.70
2006,07,24,12,19,24.70
2006,07,24,12,20,24.70
2006,07,24,12,21,24.70
2006,07,24,12,22,24.60
2006,07,24,12,23,24.60
2006,07,24,12,24,24.70
2006,07,24,12,25,24.70
2006,07,24,12,26,24.70
2006,07,24,12,27,24.70
2006,07,24,12,28,24.70
2006,07,24,12,29,24.80
2006,07,24,12,30,24.70
2006,07,24,12,31,24.60
2006,07,24,12,32,24.60
2006,07,24,12,33,24.60
2006,07,24,12,34,24.60
2006,07,24,12,35,24.70
2006,07,24,12,36,24.60
2006,07,24,12,37,24.60
2006,07,24,12,38,24.60
2006,07,24,12,39,24.60
2006,07,24,12,40,24.60
2006,07,24,12,41,24.60
2006,07,24,12,42,24.60
2006,07,24,12,43,24.70
2006,07,24,12,44,24.80
2006,07,24,12,45,24.80
2006,07,24,12,46,24.80
2006,07,24,12,47,24.70
2006,07,24,12,48,24.70
2006,07,24,12,49,24.70
2006,07,24,12,50,24.60
2006,07,24,12,51,24.70
2006,07,24,12,52,24.70
2006,07,24,12,53,24.70
2006,07,24,12,54,24.70
2006,07,24,12,55,24.70
2006,07,24,12,56,24.70
2006,07,24,12,57,24.80
2006,07,24,12,58,24.80
2006,07,24,12,59,24.80
2006,07,24,13,00,24.80
2006,07,24,13,01,24.80
2006,07,24,13,02,24.90
2006,07,24,13,03,25.00
2006,07,24,13,04,25.10
2006,07,24,13,05,25.10
2006,07,24,13,06,25.10
2006,07,24,13,07,25.10
2006,07,24,13,08,25.20
2006,07,24,13,09,25.20
2006,07,24,13,10,25.20
2006,07,24,13,11,25.30
2006,07,24,13,12,25.40
2006,07,24,13,13,25.60
2006,07,24,13,14,25.70
2006,07,24,13,15,25.70
2006,07,24,13,16,25.80
2006,07,24,13,17,25.80
2006,07,24,13,18,25.80
2006,07,24,13,19,25.80
2006,07,24,13,20,25.80
2006,07,24,13,21,25.80
2006,07,24,13,22,25.70
2006,07,24,13,23,25.60
2006,07,24,13,24,25.60
2006,07,24,13,25,25.60
2006,07,24,13,26,25.60
2006,07,24,13,27,25.70
2006,07,24,13,28,25.70
2006,07,24,13,29,25.80
2006,07,24,13,30,25.90
2006,07,24,13,31,25.90
2006,07,24,13,32,25.90
2006,07,24,13,33,25.90
2006,07,24,13,34,25.90
2006,07,24,13,35,26.00
2006,07,24,13,36,26.00
2006,07,24,13,37,26.10
2006,07,24,13,38,26.10
2006,07,24,13,39,26.10
2006,07,24,13,40,26.20
2006,07,24,13,41,26.20
2006,07,24,13,42,26.20
2006,07,24,13,43,26.20
2006,07,24,13,44,26.20
2006,07,24,13,45,26.30
2006,07,24,13,46,26.30
2006,07,24,13,47,26.30
2006,07,24,13,48,26.30
2006,07,24,13,49,26.40
2006,07,24,13,50,26.40
2006,07,24,13,51,26.30
2006,07,24,13,52,26.30
2006,07,24,13,53,26.30
2006,07,24,13,54,26.20
2006,07,24,13,55,26.10
2006,07,24,13,56,26.00
2006,07,24,13,57,25.90
2006,07,24,13,58,26.00
2006,07,24,13,59,26.00
2006,07,24,14,00,26.10
2006,07,24,14,01,26.20
2006,07,24,14,02,26.40
2006,07,24,14,03,26.50
2006,07,24,14,04,26.60
2006,07,24,14,05,26.50
2006,07,24,14,06,26.40
2006,07,24,14,07,26.40
2006,07,24,14,08,26.40
2006,07,24,14,09,26.40
2006,07,24,14,10,26.40
2006,07,24,14,11,26.40
2006,07,24,14,12,26.40
2006,07,24,14,13,26.40
2006,07,24,14,14,26.40
2006,07,24,14,15,26.40
2006,07,24,14,16,26.40
2006,07,24,14,17,26.40
2006,07,24,14,18,26.50
2006,07,24,14,19,26.60
2006,07,24,14,20,26.70
2006,07,24,14,21,26.70
2006,07,24,14,22,26.70
2006,07,24,14,23,26.70
2006,07,24,14,24,26.70
2006,07,24,14,25,26.70
2006,07,24,14,26,26.70
2006,07,24,14,27,26.70
2006,07,24,14,28,26.90
2006,07,24,14,29,27.00
2006,07,24,14,30,27.10
2006,07,24,14,31,27.10
2006,07,24,14,32,27.10
2006,07,24,14,33,27.10
2006,07,24,14,34,27.10
2006,07,24,14,35,27.00
2006,07,24,14,36,27.00
2006,07,24,14,37,27.00
2006,07,24,14,38,27.10
2006,07,24,14,39,27.00
2006,07,24,14,40,27.00
2006,07,24,14,41,27.10
2006,07,24,14,42,27.20
2006,07,24,14,43,27.30
2006,07,24,14,44,27.30
2006,07,24,14,45,27.30
2006,07,24,14,46,27.30
2006,07,24,14,47,27.20
2006,07,24,14,48,27.20
2006,07,24,14,49,27.20
2006,07,24,14,50,27.10
2006,07,24,14,51,27.10
2006,07,24,14,52,27.20
2006,07,24,14,53,27.30
2006,07,24,14,54,27.40
2006,07,24,14,55,27.50
2006,07,24,14,56,27.50
2006,07,24,14,57,27.60
2006,07,24,14,58,27.60
2006,07,24,14,59,27.70
2006,07,24,15,00,27.80
2006,07,24,15,01,27.80
2006,07,24,15,02,27.80
2006,07,24,15,03,27.80
2006,07,24,15,04,27.80
2006,07,24,15,05,27.70
2006,07,24,15,06,27.70
2006,07,24,15,07,27.60
2006,07,24,15,08,27.60
2006,07,24,15,09,27.50
2006,07,24,15,10,27.50
2006,07,24,15,11,27.50
2006,07,24,15,12,27.50
2006,07,24,15,13,27.60
2006,07,24,15,14,27.70
2006,07,24,15,15,27.70
2006,07,24,15,16,27.80
2006,07,24,15,17,27.80
2006,07,24,15,18,27.80
2006,07,24,15,19,27.80
2006,07,24,15,20,27.90
2006,07,24,15,21,27.90
2006,07,24,15,22,27.90
2006,07,24,15,23,27.90
2006,07,24,15,24,27.90
2006,07,24,15,25,27.90
2006,07,24,15,26,27.90
2006,07,24,15,27,27.80
2006,07,24,15,28,27.80
2006,07,24,15,29,27.90
2006,07,24,15,30,28.00
2006,07,24,15,31,28.10
2006,07,24,15,32,28.20
2006,07,24,15,33,28.20
2006,07,24,15,34,28.30
2006,07,24,15,35,28.20
2006,07,24,15,36,28.10
2006,07,24,15,37,28.00
2006,07,24,15,38,28.00
2006,07,24,15,39,28.10
2006,07,24,15,40,28.10
2006,07,24,15,41,28.10
2006,07,24,15,42,28.10
2006,07,24,15,43,28.10
2006,07,24,15,44,28.10
2006,07,24,15,45,28.10
2006,07,24,15,46,28.10
2006,07,24,15,47,28.10
2006,07,24,15,48,28.10
2006,07,24,15,49,28.10
2006,07,24,15,50,28.10
2006,07,24,15,51,28.10
2006,07,24,15,52,28.10
2006,07,24,15,53,28.20
2006,07,24,15,54,28.20
2006,07,24,15,55,28.20
2006,07,24,15,56,28.30
2006,07,24,15,57,28.30
2006,07,24,15,58,28.30
2006,07,24,15,59,28.30
2006,07,24,16,00,28.30
2006,07,24,16,01,28.30
2006,07,24,16,02,28.40
2006,07,24,16,03,28.40
2006,07,24,16,04,28.50
2006,07,24,16,05,28.60
2006,07,24,16,06,28.70
2006,07,24,16,07,28.90
2006,07,24,16,08,29.00
2006,07,24,16,09,29.10
2006,07,24,16,10,29.10
2006,07,24,16,11,29.20
2006,07,24,16,12,29.10
2006,07,24,16,13,29.00
2006,07,24,16,14,28.90
2006,07,24,16,15,28.80
2006,07,24,16,16,28.70
2006,07,24,16,17,28.70
2006,07,24,16,18,28.70
2006,07,24,16,19,28.70
2006,07,24,16,20,28.70
2006,07,24,16,21,28.70
2006,07,24,16,22,28.80
2006,07,24,16,23,28.80
2006,07,24,16,24,28.90
2006,07,24,16,25,28.90
2006,07,24,16,26,28.90
2006,07,24,16,27,28.90
2006,07,24,16,28,28.90
2006,07,24,16,29,28.90
2006,07,24,16,30,28.90
2006,07,24,16,31,29.00
2006,07,24,16,32,29.10
2006,07,24,16,33,29.10
2006,07,24,16,34,29.10
2006,07,24,16,35,29.10
2006,07,24,16,36,29.10
2006,07,24,16,37,29.20
2006,07,24,16,38,29.30
2006,07,24,16,39,29.30
2006,07,24,16,40,29.30
2006,07,24,16,41,29.30
2006,07,24,16,42,29.20
2006,07,24,16,43,29.20
2006,07,24,16,44,29.30
2006,07,24,16,45,29.20
2006,07,24,16,46,29.20
2006,07,24,16,47,29.20
2006,07,24,16,48,29.20
2006,07,24,16,49,29.20
2006,07,24,16,50,29.20
2006,07,24,16,51,29.20
2006,07,24,16,52,29.30
2006,07,24,16,53,29.30
2006,07,24,16,54,29.30
2006,07,24,16,55,29.30
2006,07,24,16,56,29.30
2006,07,24,16,57,29.40
2006,07,24,16,58,29.40
2006,07,24,16,59,29.40
2006,07,24,17,00,29.30
2006,07,24,17,01,29.30
2006,07,24,17,02,29.30
2006,07,24,17,03,29.30
2006,07,24,17,04,29.20
2006,07,24,17,05,29.10
2006,07,24,17,06,29.20
2006,07,24,17,07,29.20
2006,07,24,17,08,29.30
2006,07,24,17,09,29.50
2006,07,24,17,10,29.50
2006,07,24,17,11,29.60
2006,07,24,17,12,29.70
2006,07,24,17,13,29.80
2006,07,24,17,14,29.80
2006,07,24,17,15,29.70
2006,07,24,17,16,29.70
2006,07,24,17,17,29.70
2006,07,24,17,18,29.70
2006,07,24,17,19,29.60